Regional Weather Roundup
Issued by NWS Grand Forks, ND

Home | Current Version | Previous Version | Graphics & Text | Print | Product List | Glossary On
Versions: 1 2 3 4 5 6 7 8 9 10 11 12 13 14 15 16 17 18 19 20 21 22 23 24 25 26 27 28 29 30 31 32 33 34 35 36 37 38 39 40 41 42 43 44 45 46 47 48 49 50
000
ASUS43 KFGF 280731
RWRFGF
PRAIRIE TO PINES  WEATHER ROUNDUP
NATIONAL WEATHER SERVICE EASTERN NORTH DAKOTA/GRAND FORKS ND
200 AM CDT WED SEP 28 2016

 **SATELLITE DATA USED TO AUGMENT SKY COVER AT AUTOMATED STATIONS**
 *****  WEATHER ACROSS EASTERN NORTH DAKOTA  *****

CITY           SKY/WX    TMP DP  RH WIND       PRES   REMARKS
GRAND FORKS    CLOUDY    46  40  79 N6        30.09R
GRAND FRKS AFB CLOUDY    46  41  81 N5        30.10R
GRAND FRKS NWS   N/A     43 N/A N/A N2          N/A
DEVILS LAKE    CLOUDY    43  43 100 CALM      30.11R
FARGO          CLOUDY    43  39  86 N7        30.07R
WAHPETON ARPT  CLOUDY    43  37  81 N5        30.07R
$$

 ***** WEATHER ACROSS CENTRAL AND WESTERN NORTH DAKOTA  *****

CITY           SKY/WX    TMP DP  RH WIND       PRES   REMARKS
BISMARCK       CLOUDY    43  41  93 CALM      30.08R
MINOT          CLEAR     46  38  73 E3        30.07R
JAMESTOWN      CLOUDY    39  37  92 NW5       30.09R
MINOT AFB      CLEAR     45  37  75 SE6       30.06R
GARRISON         N/A     45  42  89 E5        30.07R
WILLISTON      CLEAR     51  46  83 NW6       30.04R
DICKINSON      CLEAR     51  43  74 S10       30.05R
HETTINGER      CLEAR     50  44  80 CALM      30.09R
$$

 *****  OTHER AIRPORT OBSERVATIONS IN OUR AREA  *****

CITY           SKY/WX    TMP DP  RH WIND       PRES   REMARKS
WALHALLA       FAIR      48  48 100 NW5       30.12R
GRAFTON AIRPOR FAIR      45  45 100 NW5       30.12R
VALLEY CITY AR CLOUDY    46  46 100 NE5       30.11R
CANDO          FAIR      37  37 100 E3        30.13R
CAVALIER APRT  FAIR      45  45 100 CALM      30.12R
GWINNER        CLOUDY    48  45  87 N6        30.08R
SHEYENNE NWR     N/A     50  43  76 NE6       29.95S
ROLLA          FAIR      34  34 100 CALM      30.12R
 ***** THE ABOVE OBSERVATIONS ARE NON NWS ARE NOT QUALITY
       CONTROLLED AND MAY MIS-REPORT RAIN FOR SNOW...
$$

  *****  WEATHER ACROSS NORTHERN MINNESOTA  *****

CITY           SKY/WX    TMP DP  RH WIND       PRES   REMARKS
FLAG ISLAND    MOCLDY    52  46  82 NE8       30.07R
WARROAD        CLOUDY    45  39  81 NW8       30.09R
ROSEAU         CLOUDY    45  39  81 N8        30.09R
HALLOCK        CLOUDY    43  41  93 N3        30.11R
THF RVR FALLS    N/A     45  41  86 N7        30.08R
BAUDETTE       CLOUDY    49  46  90 N6        30.06R
WASKISH        CLOUDY    48  46  93 N5        30.05R
CROOKSTON      CLOUDY    41  39  93 N5        30.10R
STEPHEN NDAWN    N/A     43  41  93 NW2         N/A
GREENBUSH NDAW   N/A     39  39 100 W2          N/A
$$
  *****  WEATHER ACROSS CENTRAL AND WEST MINNESOTA  *****

CITY           SKY/WX    TMP DP  RH WIND       PRES   REMARKS
FOSSTON        CLOUDY    37  37 100 N7        30.08R
BEMIDJI        CLOUDY    42  42 100 N5        30.04R
PARK RAPIDS    CLOUDY    47  42  83 NE7       30.02R
ELBOW LAKE     FAIR      44  42  91 N6        30.04R
WADENA         CLOUDY    43  41  93 NW3       30.02R
DETROIT LAKES  CLOUDY    46  43  87 N9        30.06R
MOORHEAD       CLOUDY    43  39  87 N7        30.09R
FERGUS FALLS   CLOUDY    41  41 100 N5        30.07R
MORRIS MN      CLEAR     43  39  87 NW6       30.03R
STAPLES        CLOUDY    46  45  93 N6        30.02R
$$
  *****  WEATHER ELSEWHERE ACROSS MINNESOTA  *****

CITY           SKY/WX    TMP DP  RH WIND       PRES   REMARKS
DULUTH         PTCLDY    50  48  93 N10       29.92R
INTRNTL FALLS  CLOUDY    51  48  89 N9        30.03R
ELY            CLOUDY    50  48  93 N3        29.97R
CLOQUET        PTCLDY    48  45  87 N9        29.94R
WHEATON        CLOUDY    46  43  87 N3        30.07R
BRAINERD       CLOUDY    48  45  89 N9        30.00R
HIBBING        MOCLDY    48  46  93 N8        29.98R
ALEXANDRIA     MOCLDY    47  44  90 N12       30.02R
SAINT CLOUD    CLOUDY    47  45  93 N8        29.97R
MINNEAPOLIS    CLOUDY    50  45  83 N10       29.94R
$$

  *****  WEATHER ACROSS SOUTH DAKOTA  *****

CITY           SKY/WX    TMP DP  RH WIND       PRES   REMARKS
SIOUX FALLS    CLEAR     48  39  71 N8        30.00R
BROOKINGS      PTCLDY    44  41  89 N6        30.01R
WATERTOWN      MOCLDY    42  40  92 N7        30.03R
HURON          CLOUDY    38  35  89 N6        30.03R
SISSETON         N/A     49  44  83 N7        30.05R
ABERDEEN       CLOUDY    41  35  79 N7        30.07R
MITCHELL       CLOUDY    47  36  65 N5        30.02R
PIERRE         CLEAR     47  40  76 NW3       30.05R
MOBRIDGE       CLOUDY    45  35  68 NE6       30.05R
RAPID CITY     CLEAR     55  41  59 NW8       30.12R
$$

  *****  SOME WEATHER IN NEARBY STATES *****

CITY           SKY/WX    TMP DP  RH WIND       PRES   REMARKS
GLASGOW MT     CLEAR     59  46  62 VRB7G20   30.10R
GREAT FALLS MT CLEAR     46  38  73 NW8       30.30R
CHEYENNE WY    CLOUDY    50  30  46 W10       30.28S
SCOTTSBLUFF NE CLEAR     48  42  80 CALM      30.16R
OMAHA NE       CLEAR     54  48  80 N8        29.92R
DES MOINES IA  MOCLDY    59  40  49 N7        29.88R
DAVENPORT IA   CLOUDY    53  47  79 CALM      29.81F
CHICAGO IL     CLOUDY    54  45  71 NE9       29.77F
EAU CLAIRE WI  CLOUDY    49  47  93 NW9       29.86R
LA CROSSE WI   CLOUDY    52  48  86 N9        29.85R
$$

  *****  SOME NATIONAL WEATHER *****

CITY           SKY/WX    TMP DP  RH WIND       PRES   REMARKS
LA GUARDIA NY  PTCLDY    67  63  87 N7        30.00R
RALEIGH NC     MOCLDY    70  69  97 SE3       29.91F
ATLANTA GA     PTCLDY    70  68  93 SW5       29.91F
NEW ORLEANS LA CLOUDY    81  72  74 N6        29.94F
OKLAHOMA CITY  CLEAR     57  49  74 SW6       30.00F
ALBUQUERQUE NM CLEAR     61  41  47 CALM      30.23S
SALT LAKE CITY CLEAR     59  51  75 SE6       30.14S
LOS ANGELES CA MOCLDY    78  49  35 VRB3      29.88S
BOISE ID       CLEAR     66  40  38 SE12      30.01S
SEATTLE WA     PTCLDY    56  46  69 N9        30.13F
$$

*** WEATHER ACROSS MANITOBA...SASKATCHEWAN AND ONTARIO ***
                ***ONTARIO***

CITY           SKY/WX    TMP DP  RH WIND       PRES   REMARKS
GERALDTON      CLOUDY    52  50  93 NE8       29.99R
THUNDER BAY    MOCLDY    54  48  82 N8        29.93R
SIOUX LOOKOUT  CLOUDY    48  48 100 E3        30.05R
TORONTO        CLOUDY    57  46  67 N2        29.88S
BIG TROUT LK   CLOUDY    50  50 100 CALM      30.09S
PICKLE LAKE    NOT AVBL
DRYDEN         MOCLDY    50  48  93 N6        30.06R
KENORA         CLOUDY    48  46  93 N5        30.08R
$$
                *** MANITOBA***

CITY           SKY/WX    TMP DP  RH WIND       PRES   REMARKS
BRANDON        CLEAR     37  36  93 CALM      30.11R
DAUPHIN        CLEAR     32  30  93 W6        30.10R
ISLAND LAKE    CLOUDY    46  45  93 SW5       30.11R
PILOT MOUND      N/A     39  37  93 E5          N/A
THE PAS        PTCLDY    45  43  93 S3        30.07R
THOMPSON       CLOUDY    45  41  87 SW8       30.07R
WINNIPEG       CLEAR     37  37 100 N5        30.12R
LYNN LAKE      CLOUDY    48  46  93 W7        30.02R
CHURCHILL      CLOUDY    43  43 100 SW6       29.98S
GILLAM         CLOUDY    45  45 100 SW7       30.06R
$$
                ***SASKATCHEWAN***

CITY           SKY/WX    TMP DP  RH WIND       PRES   REMARKS
ESTEVAN        PTCLDY    46  41  81 E6        30.05R
KINDERSLEY     MOCLDY    45  37  76 N8        30.26R
LLOYDMINSTER   CLEAR     36  30  80 W9        30.26R
PRINCE ALBERT  PTCLDY    50  45  81 NW7       30.18R
REGINA         CLEAR     52  48  87 NW16      30.09R
YORKTON        CLEAR     41  36  81 SE5       30.07R
N. BATTLEFORD  CLEAR     39  37  93 W3        30.26R
LA RONGE       CLEAR     43  43 100 W5        30.15R
SASKATOON      CLEAR     41  41 100 NW7       30.22R
SWIFT CURRENT  CLEAR     46  39  76 N7        30.22R
$$
NOTE: THESE ARE AUTOMATED STATIONS WITH LIMITED QUALITY CONTROL
      "FAIR" INDICATES FEW OR NO CLOUDS BELOW 12,000 FEET WITH NO
      SIGNIFICANT WEATHER AND/OR OBSTRUCTIONS TO VISIBILITY.
      SKY/WX - SKY CONDITION AND SIGNIFICANT WEATHER.
      TMP - AIR TEMPERATURE.    DP   - DEWPOINT TEMPERATURE.
      RH  - RELATIVE HUMIDITY.  PRES - PRESSURE.
      HX  - HEAT INDEX.         WCI  - WIND CHILL INDEX.
$




USA.gov is the U.S. government's official web portal to all federal, state and local government web resources and services.